Regional Weather Roundup
Issued by NWS Upton, NY

Current Version | Previous Version | Graphics & Text | Print | Product List | Glossary Off
Versions: 1 2 3 4 5 6 7 8 9 10 11 12 13 14 15 16 17 18 19 20 21 22 23 24 25 26 27 28 29 30 31 32 33 34 35 36 37 38 39 40 41 42 43 44 45 46 47 48 49 50

000
ASUS41 KOKX 221809
RWROKX

REGIONAL WEATHER ROUNDUP
NATIONAL WEATHER SERVICE NEW YORK NY
200 PM EDT THU JUN 22 2017

NOTE: "FAIR" INDICATES FEW OR NO CLOUDS BELOW 12,000 FEET WITH NO
SIGNIFICANT WEATHER AND/OR OBSTRUCTIONS TO VISIBILITY.

NYZ071-072-176-178-NJZ106-104-221900-
NEW YORK CITY METRO AREA

CITY           SKY/WX    TMP DP  RH WIND       PRES   REMARKS
Central Park   SUNNY     81  58  45 MISG      29.99F
Bronx Bot Gard   N/A     81  57  44 S8        29.99S
LaGuardia APRT MOSUNNY   83  55  38 S14G20    29.96F
Kennedy INTL   MOSUNNY   79  58  48 S14       29.99F
Breezy Point     N/A     72 N/A N/A S9          N/A
Newark/Liberty MOSUNNY   81  57  43 SE9       29.97F
Teterboro      MOSUNNY   82  59  45 S9        29.95F
$$

NYZ177-179-078>081-221900-
LONG ISLAND NEW YORK

CITY           SKY/WX    TMP DP  RH WIND       PRES   REMARKS
Jones Beach      N/A     72 N/A N/A S10         N/A
Matinecock PT  NOT AVBL
Farmingdale    NOT AVBL
MacArthur/ISP  MOSUNNY   77  57  50 S9G17     29.99S
Shirley        SUNNY     75  61  61 S10       29.99S
Mt Sinai Harb    N/A     81 N/A N/A W6          N/A
Westhampton    SUNNY     76  56  49 S8        30.01S
East Hampton   FAIR      77  58  52 S8        29.97S
Montauk          N/A     79  58  48 VRB5      29.98F
$$

NYZ052-065-067-221900-
HUDSON VALLEY

CITY           SKY/WX    TMP DP  RH WIND       PRES   REMARKS
White Plains   MOSUNNY   79  57  47 S10       29.97F
Larchmont Harb   N/A     73 N/A N/A S14         N/A
Croton O-T Hud   N/A     82 N/A N/A S3          N/A
Newburgh       MOSUNNY   79  63  57 SW14      29.98F
Montgomery     MOSUNNY   81  61  50 SW13      29.95F
Poughkeepsie   SUNNY     79  56  45 MISG      29.94F
Albany         PTSUNNY   80  55  42 W9        29.94F
$$

NJZ001-105-106-008-010-013-015-019>022-104-221900-
NEW JERSEY

CITY           SKY/WX    TMP DP  RH WIND       PRES   REMARKS
Newark/Liberty MOSUNNY   81  57  43 SE9       29.97F
Teterboro      MOSUNNY   82  59  45 S9        29.95F
Caldwell       MOSUNNY   86  59  39 VRB6      29.97F
Somerville     MOSUNNY   86  64  47 VRB3      29.95F
Linden         FAIR      82  56  40 SE10      29.97F
Perth Amboy      N/A     77 N/A N/A E10         N/A
Sussex         MOSUNNY   82  61  48 SW10      29.96F
Andover          N/A     81  60  48 SW10      29.98F
Trenton        SUNNY     85  63  47 SW8       29.96F
Millville      CLOUDY    84  67  56 S6        29.99S
Atlantic City  SUNNY     85  59  41 S12       29.99F
Wrightstown    NOT AVBL
Toms River     PTSUNNY   83  66  56 SE10      29.99S
Belmar         SUNNY     80  65  59 SE9       29.99F
$$

PAZ047>061-062-071-221900-
EASTERN PENNSYLVANIA

CITY           SKY/WX    TMP DP  RH WIND       PRES   REMARKS
Philadelphia   PTSUNNY   87  64  46 W14G20    29.98F
Allentown      MOSUNNY   84  62  47 W9        29.97F
Scranton       MOSUNNY   83  62  49 W13G20    29.97F
$$

CTZ002-004>006-009-010-012-RIZ004-006-007-MAZ004-011-015-221900-
SOUTHERN NEW ENGLAND
 IN CT

CITY           SKY/WX    TMP DP  RH WIND       PRES   REMARKS
Bradley INTL   MOSUNNY   82  52  35 W6        29.94F
Hartford       SUNNY     82  52  35 VRB6      29.93F
Danbury        MOSUNNY   79  57  46 W13       29.98F
Wtrbury/Oxford MOSUNNY   77  54  44 W7        29.99F
Bridgeport     SUNNY     82  56  40 SW10      29.96F
Meriden        SUNNY     82  56  40 VRB6      29.95F
New Haven      MOSUNNY   79  55  44 SW14      29.97F
Chester        FAIR      79  57  47 S8        29.96F
Groton         SUNNY     76  57  51 SW12      29.95F
Wilimantic     SUNNY     82  52  35 SW8       29.94F

 IN RI

CITY           SKY/WX    TMP DP  RH WIND       PRES   REMARKS
Providence     MOSUNNY   82  51  34 VRB6      29.94F
Block Island   SUNNY     76  55  48 SW14      29.97F
Westerly       SUNNY     80  54  40 SW13G20   29.96F
 IN MA

CITY           SKY/WX    TMP DP  RH WIND       PRES   REMARKS
Boston         PTSUNNY   81  51  35 W13       29.91F
Worcester      SUNNY     76  50  40 SW13      29.96F
Westfield      NOT AVBL
Provincetown   SUNNY     77  56  48 SW8       29.94F
Nantucket      SUNNY     69  59  70 SW13      29.97F
$$

ANZ330-335-338-340-345-350-353-355-221900-
COASTAL MARINE OBSERVATIONS


STATION/POSITION TIME  SKY/WX   TEMP    WIND        PRES    VSBY  WAVE
                                AIR SEA DIR/SP/G                  HT/PER
                 (UTC)          (F)     (DEG/KT/KT) (MB)    (MI)  (FT/S)
NY HARB ENTRANCE 1750            70 69  170/  6/  6 1015.6          2/ 6
20 S FIRE ISLAND 1750            70 69  170/  8/  8 1015.3          2/ 5
GREAT SOUTH BAY  1730            71 76  210/ 10/ 12   N/A
23 SSW MONTAUK P 1650            67 65              1016.1          3/ 6
15 E BARNEGAT LI 1730               69                N/A           2/ 5
HUDSON CANYON    1650            69 69  160/  2/  2 1016.1          3/ 6
KINGS POINT      1724            75 65  220/ 13/ 17 1015.0
EXECUTION ROCKS  1745            74     180/ 10/ 14   N/A
CENTRAL LI SOUND 1730            71     220/  6/  8   N/A           1
EASTERN LI SOUND NOT AVBL
ROBBINS REEF     1718                   160/ 15/ 16 1016.2
$$


>>>>>>>>>>>>>>>>>>>>>>>>>>>> KEY <<<<<<<<<<<<<<<<<<<<<<<<<<<
>                                                          <
>     SKY/WX - Sky Condition/Present Weather               <
>     TMP    - Temperature in Fahrenheit                   <
>     DP     - Dew Point in Fahrenheit                     <
>     RH     - Relative Humidity in Percent                <
>     WIND   - Direction (from) and Speed in MPH           <
>     PRES   - Mean Sea Level Pressure (inches of Hg)      <
>     WCI    - Wind Chill Index                            <
>     VSB    - VISIBILITY IN MILES                         <
>     HX     - HEAT INDEX                                  <
>     TC     - TEMPERATURE IN CELSIUS                      <
>     VRB    - VARIABLE WIND DIRECTION                     <
>                                                          <
>>>>>>>>>>>>>>>>>>>>>>>>>>>> KEY <<<<<<<<<<<<<<<<<<<<<<<<<<<



USA.gov is the U.S. government's official web portal to all federal, state and local government web resources and services.